EW0150 Weather Reports


time (UTC)temp
C
wind
direction
speed
KPH
gust
KPH
rain 1hr
cm
rain 24hr
cm
rain mn
cm
humidity
%
barometer
mb
20260507101005 19 192 11.3 16.1 0.00 0.00 0.00 62 1010.3
20260507095005 19 257 9.7 19.3 0.00 0.00 0.00 61 1010.3
20260507094005 19 264 8.0 14.5 0.00 0.00 0.00 59 1010.2
20260507092006 20 217 11.3 17.7 0.00 0.00 0.00 61 1010.2
20260507091005 19 194 8.0 14.5 0.00 0.00 0.00 62 1010.1
20260507085006 18 215 9.7 19.3 0.00 0.00 0.00 66 1010.0
20260507084005 18 246 9.7 14.5 0.00 0.00 0.00 66 1009.9
20260507083005 18 242 8.0 19.3 0.00 0.00 0.00 67 1009.8
20260507082005 18 186 9.7 22.5 0.00 0.00 0.00 67 1009.8
20260507081005 17 237 11.3 16.1 0.00 0.00 0.00 69 1009.8
20260507080008 17 261 12.9 22.5 0.00 0.00 0.00 70 1009.8
20260507075005 17 178 11.3 20.9 0.00 0.00 0.00 72 1009.7
20260507074005 17 240 12.9 20.9 0.00 0.00 0.00 73 1009.7
20260507071005 16 253 11.3 19.3 0.00 0.00 0.00 75 1009.3
20260507065005 16 235 11.3 20.9 0.00 0.00 0.00 76 1009.2
20260507064005 15 241 14.5 25.7 0.00 0.00 0.00 78 1009.1
20260507063005 15 202 12.9 25.7 0.00 0.00 0.00 78 1008.9
20260507061005 14 182 4.8 9.7 0.00 0.00 0.00 82 1008.8
20260507060009 14 236 8.0 14.5 0.00 0.00 0.00 82 1008.9
20260507055006 15 250 4.8 11.3 0.00 0.00 0.00 82 1008.8
20260507054005 14 273 6.4 11.3 0.00 0.00 0.00 83 1008.5
20260507053005 14 234 4.8 8.0 0.00 0.00 0.00 84 1008.3
20260507052005 13 217 3.2 6.4 0.00 0.00 0.00 85 1008.3
20260507051004 13 202 4.8 9.7 0.00 0.00 0.00 86 1008.2
20260507050006 13 209 6.4 9.7 0.00 0.00 0.00 86 1008.2
20260507045004 13 199 4.8 9.7 0.00 0.00 0.00 86 1008.0
20260507044005 13 279 4.8 8.0 0.00 0.00 0.00 86 1007.9
20260507043004 13 265 4.8 11.3 0.00 0.00 0.00 86 1007.9
20260507042004 13 323 4.8 9.7 0.00 0.00 0.00 86 1007.7
20260507041005 13 290 4.8 8.0 0.00 0.00 0.00 86 1007.6
20260507040007 13 277 4.8 8.0 0.00 0.00 0.00 87 1007.4
20260507033005 12 281 4.8 11.3 0.00 0.00 0.00 87 1007.3
20260507032010 12 282 4.8 11.3 0.00 0.00 0.00 87 1007.2
20260507031007 12 286 4.8 11.3 0.00 0.00 0.00 87 1007.3
20260507030009 12 278 6.4 11.3 0.00 0.00 0.00 87 1007.1
20260507025007 12 286 8.0 14.5 0.00 0.00 0.00 87 1007.0
20260507024006 12 285 11.3 19.3 0.00 0.00 0.00 86 1006.9
20260507023006 12 315 3.2 9.7 0.00 0.00 0.00 86 1006.7
20260507022008 12 217 3.2 4.8 0.00 0.00 0.00 86 1006.5
20260507021009 12 217 1.6 4.8 0.00 0.00 0.00 85 1006.6
20260507020023 12 217 0.0 1.6 0.00 0.00 0.00 86 1006.6
20260507015006 12 217 1.6 4.8 0.00 0.00 0.00 85 1006.6
20260507014006 12 217 0.0 3.2 0.00 0.00 0.00 86 1006.6
20260507013007 12 217 1.6 1.6 0.00 0.00 0.00 86 1006.5
20260507012006 12 217 3.2 4.8 0.00 0.00 0.00 86 1006.4
20260507010009 13 216 3.2 4.8 0.00 0.00 0.00 84 1006.3
20260507004008 13 217 1.6 3.2 0.00 0.00 0.00 83 1006.3
20260507003009 13 217 4.8 6.4 0.00 0.00 0.00 83 1006.4
20260507002006 13 278 3.2 4.8 0.00 0.00 0.00 82 1006.3
20260507001009 13 278 1.6 4.8 0.00 0.00 0.00 82 1006.4
20260507000012 13 278 1.6 4.8 0.00 0.00 0.00 81 1006.4
20260506235008 13 278 3.2 4.8 0.00 0.00 0.00 81 1006.3
20260506233006 13 315 1.6 3.2 0.00 0.00 0.00 80 1006.4
20260506232006 13 315 4.8 6.4 0.00 0.00 0.00 79 1006.5
20260506231006 14 313 4.8 8.0 0.00 0.00 0.00 77 1006.6
20260506230008 15 289 3.2 8.0 0.00 0.00 0.00 75 1006.5
20260506225006 15 302 4.8 8.0 0.00 0.00 0.00 73 1006.4
20260506224006 16 331 8.0 12.9 0.00 0.00 0.00 69 1006.5
20260506223006 16 333 6.4 17.7 0.00 0.00 0.00 65 1006.5
20260506222006 17 201 4.8 8.0 0.00 0.00 0.00 62 1006.3
20260506221004 18 217 6.4 14.5 0.00 0.00 0.00 60 1006.2
20260506215003 18 169 9.7 16.1 0.00 0.00 0.00 59 1006.1
20260506214005 18 184 11.3 17.7 0.00 0.00 0.00 58 1006.1
20260506213005 18 183 11.3 16.1 0.00 0.00 0.00 58 1006.0
20260506212005 18 163 9.7 16.1 0.00 0.00 0.00 58 1006.0
20260506211005 18 171 9.7 16.1 0.00 0.00 0.00 58 1005.9
20260506210009 18 181 11.3 16.1 0.00 0.00 0.00 58 1005.9
20260506205007 18 178 12.9 22.5 0.00 0.00 0.00 57 1005.9
20260506204008 19 187 12.9 24.1 0.00 0.00 0.00 57 1005.7
20260506203006 19 190 9.7 16.1 0.00 0.00 0.00 57 1005.8
20260506202005 19 163 11.3 16.1 0.00 0.00 0.00 56 1005.6
20260506201004 19 163 11.3 19.3 0.00 0.00 0.00 56 1005.5
20260506200007 19 148 11.3 17.7 0.00 0.00 0.00 56 1005.5
20260506195004 19 159 11.3 17.7 0.00 0.00 0.00 56 1005.5
20260506194005 19 142 9.7 14.5 0.00 0.00 0.00 56 1005.5
20260506193004 19 140 8.0 12.9 0.00 0.00 0.00 57 1005.3
20260506192005 19 153 8.0 11.3 0.00 0.00 0.00 56 1005.3
20260506191005 20 150 8.0 12.9 0.00 0.00 0.00 54 1005.3
20260506190009 20 162 6.4 9.7 0.00 0.00 0.00 53 1005.3
20260506185004 20 150 6.4 12.9 0.00 0.00 0.00 53 1005.2
20260506184007 20 156 9.7 17.7 0.00 0.00 0.00 52 1005.0
20260506182005 21 165 14.5 24.1 0.00 0.00 0.00 50 1004.9
20260506181004 21 163 14.5 22.5 0.00 0.00 0.00 49 1004.9
20260506180008 21 145 16.1 29.0 0.00 0.00 0.00 49 1004.9
20260506175005 21 190 16.1 29.0 0.00 0.00 0.00 48 1004.9
20260506174004 22 180 17.7 29.0 0.00 0.00 0.00 47 1004.9
20260506173005 22 203 16.1 25.7 0.00 0.00 0.00 48 1005.0
20260506172004 22 142 12.9 24.1 0.00 0.00 0.00 48 1004.9
20260506171004 22 189 14.5 24.1 0.00 0.00 0.00 47 1004.9
20260506165005 22 184 12.9 20.9 0.00 0.00 0.00 47 1004.9
20260506164005 22 178 8.0 17.7 0.00 0.00 0.00 48 1005.0
20260506163007 22 221 4.8 8.0 0.00 0.00 0.00 49 1005.0
20260506162007 22 209 4.8 9.7 0.00 0.00 0.00 49 1005.2
20260506160007 22 198 11.3 20.9 0.00 0.00 0.00 48 1005.3
20260506155005 22 163 11.3 17.7 0.00 0.00 0.00 47 1005.5
20260506153004 23 145 9.7 16.1 0.00 0.00 0.00 46 1005.6
20260506152004 23 202 9.7 17.7 0.00 0.00 0.00 47 1005.7
20260506151005 23 191 9.7 20.9 0.00 0.00 0.00 47 1005.8
20260506150009 23 213 12.9 20.9 0.00 0.00 0.00 45 1005.9
20260506145006 23 248 11.3 22.5 0.00 0.00 0.00 46 1006.0
20260506144007 23 211 14.5 22.5 0.00 0.00 0.00 46 1005.9
20260506142004 23 246 12.9 20.9 0.00 0.00 0.00 44 1006.1
20260506141004 23 180 16.1 30.6 0.00 0.00 0.00 43 1006.3
20260506140006 23 217 16.1 29.0 0.00 0.00 0.00 43 1006.4
20260506135003 23 307 16.1 25.7 0.00 0.00 0.00 43 1006.4
20260506134004 23 267 16.1 30.6 0.00 0.00 0.00 42 1006.3
20260506133006 24 238 20.9 33.8 0.00 0.00 0.00 41 1006.4
20260506132006 25 269 19.3 33.8 0.00 0.00 0.00 41 1006.4
20260506131004 24 242 19.3 33.8 0.00 0.00 0.00 37 1006.6
20260506130008 25 224 17.7 30.6 0.00 0.00 0.00 40 1006.6
20260506125006 24 189 19.3 32.2 0.00 0.00 0.00 43 1006.7
20260506123006 25 159 17.7 33.8 0.00 0.00 0.00 43 1006.7
20260506122005 25 222 19.3 35.4 0.00 0.00 0.00 44 1006.7
20260506121006 23 217 19.3 33.8 0.00 0.00 0.00 45 1006.8
20260506120008 23 187 20.9 41.8 0.00 0.00 0.00 44 1006.8
20260506115006 24 193 19.3 38.6 0.00 0.00 0.00 46 1006.8
20260506111005 23 198 17.7 30.6 0.00 0.00 0.00 49 1006.8
20260506110008 23 203 22.5 41.8 0.00 0.00 0.00 48 1007.0
20260506105005 22 174 17.7 30.6 0.00 0.00 0.00 49 1007.0
20260506104008 23 220 16.1 27.4 0.00 0.00 0.00 50 1007.2
20260506103008 23 209 17.7 37.0 0.00 0.00 0.00 52 1007.1
20260506102008 22 214 22.5 32.2 0.00 0.00 0.00 51 1007.1